GW0189 Weather Reports


time (UTC)temp
C
wind
direction
speed
KPH
gust
KPH
rain 1hr
cm
rain 24hr
cm
rain mn
cm
humidity
%
barometer
mb
20260507051540 11 283 20.9 38.6 0.00 0.00 0.00 90 1019.6
20260507050037 11 271 20.9 33.8 0.00 0.00 0.00 90 1019.5
20260507044534 11 299 24.1 37.0 0.00 0.00 0.00 90 1019.5
20260507043031 11 304 24.1 37.0 0.00 0.00 0.00 90 1019.4
20260507041534 11 292 22.5 37.0 0.00 0.00 0.00 90 1019.2
20260507040034 11 284 25.7 38.6 0.00 0.00 0.00 89 1019.2
20260507034538 11 265 29.0 40.2 0.00 0.00 0.00 89 1019.1
20260507033040 11 288 27.4 38.6 0.00 0.00 0.00 89 1018.9
20260507031532 11 304 25.7 40.2 0.00 0.00 0.00 89 1018.8
20260507030032 12 320 27.4 45.1 0.00 0.00 0.00 88 1018.8
20260507024536 12 288 29.0 43.5 0.00 0.00 0.00 87 1018.7
20260507023035 12 277 25.7 40.2 0.00 0.00 0.00 87 1019.0
20260507021534 12 276 20.9 37.0 0.00 0.00 0.00 86 1018.8
20260507020035 12 294 30.6 43.5 0.00 0.00 0.00 86 1018.7
20260507014542 12 275 27.4 38.6 0.00 0.00 0.00 85 1018.8
20260507013034 13 341 27.4 43.5 0.00 0.00 0.00 84 1018.8
20260507011538 13 278 27.4 49.9 0.00 0.00 0.00 83 1019.0
20260507010035 13 311 25.7 41.8 0.00 0.00 0.00 83 1019.0
20260507004537 13 288 25.7 41.8 0.00 0.00 0.00 83 1019.2
20260507003030 13 314 27.4 46.7 0.00 0.00 0.00 83 1019.1
20260507001540 13 272 25.7 37.0 0.00 0.00 0.00 82 1019.3
20260507000032 14 290 24.1 38.6 0.00 0.00 0.00 82 1019.2
20260506234533 14 288 25.7 38.6 0.00 0.00 0.00 82 1019.1
20260506233031 15 295 24.1 38.6 0.00 0.00 0.00 81 1019.3
20260506231534 14 294 24.1 40.2 0.00 0.00 0.00 82 1019.3
20260506230037 14 289 24.1 40.2 0.00 0.00 0.00 82 1019.6
20260506224534 14 319 27.4 37.0 0.00 0.00 0.00 81 1019.7
20260506223033 15 290 24.1 41.8 0.00 0.00 0.00 81 1020.0
20260506221531 15 308 27.4 40.2 0.00 0.00 0.00 80 1020.0
20260506220038 15 254 22.5 37.0 0.00 0.00 0.00 79 1020.3
20260506214531 15 277 24.1 37.0 0.00 0.00 0.00 79 1020.6
20260506213032 16 253 22.5 32.2 0.00 0.00 0.00 79 1020.7
20260506211533 16 294 19.3 30.6 0.00 0.00 0.00 78 1020.5
20260506210032 15 288 17.7 29.0 0.00 0.00 0.00 79 1020.8
20260506204534 15 298 19.3 27.4 0.00 0.00 0.00 78 1020.7
20260506203031 16 298 16.1 29.0 0.00 0.00 0.00 78 1020.9
20260506201532 16 360 17.7 25.7 0.00 0.00 0.00 79 1020.9
20260506200033 16 286 16.1 27.4 0.00 0.00 0.00 79 1021.0
20260506194532 16 273 14.5 27.4 0.00 0.00 0.00 79 1021.2
20260506193031 16 360 12.9 24.1 0.00 0.00 0.00 79 1021.2
20260506191534 15 256 11.3 20.9 0.00 0.00 0.00 79 1021.2
20260506190034 15 254 9.7 20.9 0.00 0.00 0.00 78 1021.3
20260506184534 15 290 12.9 22.5 0.00 0.00 0.00 79 1021.3
20260506183030 15 295 9.7 22.5 0.00 0.00 0.00 80 1021.2
20260506181532 15 296 9.7 20.9 0.00 0.00 0.00 80 1021.3
20260506180032 15 294 12.9 19.3 0.00 0.00 0.00 80 1021.1
20260506174532 14 242 11.3 20.9 0.00 0.00 0.00 81 1021.1
20260506173036 14 314 14.5 20.9 0.00 0.00 0.00 80 1021.0
20260506171533 14 315 11.3 17.7 0.00 0.00 0.00 80 1021.4
20260506170036 13 289 8.0 16.1 0.00 0.00 0.00 80 1021.3
20260506164534 13 256 6.4 14.5 0.00 0.00 0.00 81 1021.0
20260506163037 13 282 6.4 14.5 0.00 0.00 0.00 82 1020.9
20260506161535 13 308 9.7 17.7 0.00 0.00 0.00 81 1021.0
20260506160031 13 304 9.7 12.9 0.00 0.00 0.00 82 1020.8
20260506154533 12 282 6.4 17.7 0.00 0.00 0.00 82 1021.0
20260506153031 13 306 6.4 12.9 0.00 0.00 0.00 82 1020.9
20260506151533 13 288 9.7 19.3 0.00 0.00 0.00 84 1020.8
20260506150034 12 300 9.7 16.1 0.00 0.00 0.00 84 1020.5
20260506144540 12 309 11.3 16.1 0.00 0.00 0.00 84 1020.5
20260506143032 12 264 9.7 16.1 0.00 0.00 0.00 85 1020.6
20260506141536 12 298 11.3 19.3 0.00 0.00 0.00 85 1020.4
20260506140032 12 297 8.0 12.9 0.00 0.00 0.00 86 1020.2
20260506134530 12 288 6.4 12.9 0.00 0.00 0.00 87 1020.0
20260506133040 11 302 4.8 12.9 0.00 0.00 0.00 87 1020.0
20260506131532 11 301 6.4 12.9 0.00 0.00 0.00 87 1019.9
20260506130031 12 323 8.0 14.5 0.00 0.00 0.00 87 1019.9
20260506124531 12 297 9.7 14.5 0.00 0.00 0.00 87 1019.7
20260506123030 12 279 6.4 12.9 0.00 0.00 0.00 86 1019.7
20260506121530 11 302 9.7 16.1 0.00 0.00 0.00 86 1019.6
20260506120034 11 321 8.0 14.5 0.00 0.00 0.00 87 1019.5
20260506114533 11 314 11.3 16.1 0.00 0.00 0.00 87 1019.5
20260506113032 11 300 9.7 14.5 0.00 0.00 0.00 87 1019.4
20260506111531 12 298 9.7 17.7 0.00 0.00 0.00 87 1019.3
20260506110030 12 315 9.7 17.7 0.00 0.00 0.00 87 1019.1
20260506104533 11 292 11.3 19.3 0.00 0.00 0.00 87 1019.1
20260506103032 11 292 8.0 17.7 0.00 0.00 0.00 87 1019.0
20260506101532 11 300 8.0 14.5 0.00 0.00 0.00 88 1018.8
20260506100031 12 260 6.4 12.9 0.00 0.00 0.00 88 1018.9
20260506094531 11 290 6.4 14.5 0.00 0.03 0.00 87 1019.0
20260506093037 11 282 8.0 16.1 0.00 0.03 0.00 87 1018.9
20260506091532 12 296 8.0 14.5 0.00 0.03 0.00 87 1018.9
20260506090032 12 279 8.0 14.5 0.00 0.03 0.00 87 1019.0
20260506084536 12 286 6.4 17.7 0.00 0.10 0.00 87 1018.9
20260506083037 12 360 11.3 19.3 0.00 0.10 0.00 87 1019.1
20260506081533 12 283 12.9 19.3 0.00 0.10 0.00 87 1019.2
20260506073032 12 294 8.0 14.5 0.00 0.18 0.00 87 1018.9
20260506071531 12 304 9.7 17.7 0.00 0.18 0.00 87 1018.8
20260506061532 12 298 12.9 20.9 0.00 0.20 0.18 87 1018.2